sat.trackr.live / text

‹ back to catalog

STARLINK-36351

NORAD 67607 · 2026-018U

PAYLOAD ACTIVE UNKNOWN

§ Identity

Operator
Country
US
Launch date
2026-01-29
Launch site
AFWTR
Launch vehicle
Mass (kg)
RCS (m²)

Purposes: comms

External: N2YO · Heavens-Above · Gunter

§ Orbital elements

Epoch: 2026-05-25T03:18:39.672288Z

Period
93.91 min
Inclination
97.2848°
Eccentricity
0.0000440
Mean motion
15.33452664 rev/d
Perigee alt
465.2 km
Apogee alt
465.8 km
Semi-major
6,843.7 km
B*
3.9711e-4
RAAN
210.3222°
Arg perigee
131.0659°
Mean anomaly
229.0622°
Rev number
1,905

§ Raw data

STARLINK-363511 67607U 26018U   26145.13795917  .00012770  00000+0  39711-3 0  99932 67607  97.2848 210.3222 0000440 131.0659 229.0622 15.33452664 19058

JSON: /api/v1/satellites/67607 · /tle

For live sub-satellite position, see the globe view (requires WebGL).

§ Visibility from observer

Set your observer location to see the next 7 days of passes ≥ 10°. The values pass through the URL so the page stays shareable.

No JS? Fill the form by hand. The geolocation button needs JavaScript.